Regional Weather Roundup
Issued by NWS

Home | Current Version | Previous Version | Graphics & Text | Print | Product List | Glossary On
Versions: 1 2 3 4 5 6 7 8 9 10 11 12 13 14 15 16 17 18 19 20 21 22 23 24 25 26 27 28 29 30 31 32 33 34 35 36 37 38 39 40 41 42 43 44 45 46 47 48 49 50
000
ASUS43 KBIS 051502
RWRND

NORTH DAKOTA REGIONAL WEATHER ROUNDUP
NATIONAL WEATHER SERVICE BISMARCK ND
1000 AM CDT SUN JUL 05 2015

NOTE: "FAIR" INDICATES FEW OR NO CLOUDS BELOW 12,000 FEET WITH NO
SIGNIFICANT WEATHER AND/OR OBSTRUCTIONS TO VISIBILITY.


NDZ001>003-009>011-017-051600-
NORTHWEST NORTH DAKOTA

CITY           SKY/WX    TMP DP  RH WIND       PRES   REMARKS
WILLISTON      CLOUDY    69  60  73 N18       29.89S HAZE
MINOT          CLOUDY    65  62  90 N5        29.83S FOG
$$

NDZ018>021-031>035-040>046-051600-
SOUTHWEST NORTH DAKOTA

CITY           SKY/WX    TMP DP  RH WIND       PRES   REMARKS
BISMARCK       CLOUDY    68  63  84 N17G24    29.81S
DICKINSON      LGT RAIN  63  59  87 E13       29.85S
GARRISON         N/A     64  62  93 NE10      29.79F
HETTINGER ARPT TSTM      63  60  90 NE31G37   29.81F
$$

NDZ004>008-012>016-024-026-027-054-051600-
NORTHEAST NORTH DAKOTA

CITY           SKY/WX    TMP DP  RH WIND       PRES   REMARKS
GRAND FORKS    CLOUDY    74  68  81 S10       29.73R
GRND FRKS AFB  PTSUNNY   73  68  85 S9        29.74R
DEVILS LAKE    CLOUDY    66  61  82 N16       29.76R THUNDER
$$

NDZ022-023-025-028>030-036>039-047>053-051600-
SOUTHEAST NORTH DAKOTA

CITY           SKY/WX    TMP DP  RH WIND       PRES   REMARKS
FARGO          SUNNY     77  67  71 S10G18    29.73F
JAMESTOWN      CLOUDY    75  68  78 SW5       29.77R
$$



USA.gov is the U.S. government's official web portal to all federal, state and local government web resources and services.